Overview Statistics Trail Chart Weather Telemetry Raw packets
 

This is the latest recevied weather packets stored in our database for station/object N0NB. If no packets are shown the sender has not sent any weather packets the latest 10 day(s).

<< 31 32 33 34 35 36 37 >>
Time Temp. Humidity Pressure Rain* Wind** Luminosity Snow
1788181216 24.44° C 76% 1012.2 hPa 0 mm - 110 W/m² -
1788180615 23.89° C 76% 1012 hPa 0 mm - 55 W/m² -
1788180015 23.89° C 75% 1011.9 hPa 0 mm - 64 W/m² -
1788179415 23.89° C 75% 1011.9 hPa 0 mm - 55 W/m² -
1788178815 23.89° C 73% 1011.9 hPa 0 mm - 28 W/m² -
1788178215 23.89° C 71% 1011.9 hPa 0 mm - 14 W/m² -
1788177615 23.89° C 71% 1011.8 hPa 0 mm - 3 W/m² -
1788177015 23.89° C 71% 1011.8 hPa 0 mm - 1 W/m² -
1788176415 24.44° C 69% 1011.7 hPa 0 mm - 0 W/m² -
1788175815 25° C 67% 1011.7 hPa 0 mm - 0 W/m² -
1788175215 25.56° C 66% 1011.7 hPa 0 mm - 0 W/m² -
1788174615 25° C 66% 1011.5 hPa 0 mm - 0 W/m² -
1788174015 24.44° C 69% 1011.3 hPa 0 mm - 0 W/m² -
1788173415 25° C 68% 1011.2 hPa 0 mm - 0 W/m² -
1788172815 25.56° C 67% 1011 hPa 0 mm - 0 W/m² -
1788172217 26.11° C 64% 1010.8 hPa 0 mm - 0 W/m² -
1788171617 26.11° C 63% 1010.8 hPa 0 mm - 0 W/m² -
1788171017 26.67° C 63% 1010.6 hPa 0 mm - 0 W/m² -
1788170417 26.67° C 63% 1010.6 hPa 0 mm - 0 W/m² -
1788169817 26.67° C 63% 1010.4 hPa 0 mm - 0 W/m² -
1788169217 26.67° C 62% 1010.4 hPa 0 mm - 0 W/m² -
1788168617 27.22° C 61% 1010.3 hPa 0 mm - 0 W/m² -
1788168015 27.22° C 61% 1010.2 hPa 0 mm - 0 W/m² -
1788167417 26.67° C 61% 1009.9 hPa 0 mm - 0 W/m² -
1788166817 26.67° C 62% 1009.9 hPa 0 mm - 0 W/m² -

* Rain latest hour (hover to see other rain measurements)
** Current wind speed in m/s (hover to see current wind gust speed)